Showing default

ALOUETTE 2, 1804

Orbit data source: Space-Track

ALOUETTE 2, 1804 is a payload satellite owned by DRTE (CA) in LEO that was launched on Mon, 29 Nov 1965 UTC via a THOR SLV-2 AGENA B launch vehicle from the Air Force Western Test Range (AFWTR). Payload-class satellites include a variety of spacecraft equipped with specific instruments for various scientific and technological missions. These include communications satellites like Starlink; space stations such as the ISS; scientific satellites like the Hubble; Earth observation satellites from companies like Planet Labs, Umbra, and HawkEye 360; GPS; miniature CubeSats for education and research; and military/defense satellites.

Loading next visibility...
Identifier
1804, 1965-098A
Orbit
LEO
Country
Flag of CACA
Related business
Manufacturer
DEHAVT/RCAV
Mission
Civil Science
Bus & Motor
ALOUETTE, Unknown motor
Mass
145 kg wet, 145 kg dry
Launch date (UTC)
1965-11-29 (60 years ago)
Launch vehicle
THOR SLV-2 AGENA B
Launch site
Air Force Western Test Range (AFWTR)
Object type
Payload
Rocket body
Debris
Shape & HBR
Ell + 1 Rod, 36.5 m
Radar Cross Section
0.732 m², Medium (>0.1 m² and < 1m²)

Expand to show TLE details & history
Last TLE update: 12 hours ago

TLE from 12 hours ago
0 ALOUETTE 2
1 01804U 65098A   25242.84890536  .00001013  00000-0  32692-3 0  9999
2 01804  79.8035 163.5955 1331470 101.0568 274.2770 12.27923542643639
Epoch: 2025-08-30T20:22Z
TLE epoch observation values (Epoch: 2025-08-30T20:22:25.423Z)
Latitude
0.00006°
Longitude
-121.28772°
Altitude
1,622.456 km
Speed
7.032 km/s
True Right ascension
10h 54m 22s
True Declination
0° 00' 00"
Sunlit
Object was in daylight at epoch
Visualization orbit readout
Latitude
Unknown
Longitude
Unknown
Altitude
Unknown
Speed
Unknown
Apparent Right ascension
Unknown
Apparent Declination
Unknown
Sunlit
N/A
Visualization observer readout
Local Sidereal Time
00:08:25
Azimuth
Unknown
Elevation
Unknown
Doppler factor
Unknown
Orbital elements
Apogee altitude
2,611.997 km
Perigee altitude
499.281 km
Semi-major axis
7,933.776 km
Eccentricity
0.13315
Inclination
79.8035°
RAAN
163.5955°
Arg. of periapsis
101.0568°
True anomaly
259.0522°
Mean anomaly
274.277°
Eccentric anomaly
266.66119°
Mean motion
3.07131 °/min
Orbital period
117.21 mins
BSTAR
0.00032692
Loading maneuver chart data...
Computing Atmospheric mass density...
Loading historical data...
Loading historical data...
Loading historical data...
Loading historical data...
Loading historical data...
Loading historical data...
Loading historical data...

Documentation

Showing up to 5 results
|